Regional Weather Roundup
Issued by NWS

Home | Current Version | Previous Version | Graphics & Text | Print | Product List | Glossary On
Versions: 1 2 3 4 5 6 7 8 9 10 11 12 13 14 15 16 17 18 19 20 21 22 23 24 25 26 27
000
ASUS45 KBOU 250007
RWRCO

WEATHER ROUNDUP FOR COLORADO
NATIONAL WEATHER SERVICE DENVER/BOULDER CO
600 PM MDT SUN SEP 24 2017

NOTE: "FAIR" INDICATES FEW OR NO CLOUDS BELOW 12000 FEET WITH NO
SIGNIFICANT WEATHER AND/OR OBSTRUCTIONS TO VISIBILITY.

COZ001>005-013-030-031-250100-
...NORTHWEST COLORADO...

CITY           SKY/WX    TMP DP  RH WIND       PRES   REMARKS
CRAIG          PTSUNNY   54  18  24 SW12      29.97R
HAYDEN         CLOUDY    51  22  31 SW23G37   29.99R
MEEKER         FAIR      54  18  24 W17       29.98R
RABBIT EARS PA SNOW      32  32 100 NW9       30.09R VSB 1/4 WCI  24
STEAMBOAT SPGS CLOUDY    44  35  70 CALM      30.02R
WALDEN         CLOUDY    37  34  87 N16G23    30.03R
$$

COZ006>008-011-250100-
...WEST CENTRAL VALLEYS...

CITY           SKY/WX    TMP DP  RH WIND       PRES   REMARKS
GRAND JUNCTION FAIR      61  26  26 NW21      29.95R
MONTROSE       FAIR      59  15  18 SW20G32   29.94R
EAGLE          PTSUNNY   53  22  29 W10G22    30.01R
RIFLE          FAIR      59  26  28 SE9       29.96R
DELTA          NOT AVBL
NUCLA          FAIR      59  10  14 SW7G21    30.04R
$$

COZ017>023-064>068-250100-
...SOUTHWEST COLORADO...

CITY           SKY/WX    TMP DP  RH WIND       PRES   REMARKS
DURANGO        FAIR      58  23  26 W12       30.01R
CORTEZ         FAIR      59  17  19 W10       30.00S
PAGOSA SPRINGS FAIR      56  18  22 W6        30.05R
TELLURIDE      FAIR      47  14  26 SW7G18    30.10R
WOLF CREEK PAS FAIR      32  18  55 SW17G36   30.23R WCI  21
$$

COZ009-010-012-014-032>034-037-058>063-250100-
...CENTRAL COLORADO...

CITY           SKY/WX    TMP DP  RH WIND       PRES   REMARKS
ASPEN          PTSUNNY   51  27  39 W5G16     29.99R
BUENA VISTA    FAIR      59  10  14 S18G25    29.94R
COPPER MTN     CLOUDY    37  28  70 NW21      30.12R
BERTHOUD PASS  HAZE      27  18  69 SE29G36   30.14R VSB<1/4 WCI  11
COTTONWOOD PAS FAIR      55   3  12 S16G24    30.04R
GUNNISON       FAIR      53  23  31 W10G18    30.00R
KREMMLING      CLOUDY    54  32  43 NW13G18   29.99R
LEADVILLE      FAIR      47   5  18 S9        30.01R
MONARCH PASS   FAIR      39  10  30 SW37G47   30.23R
SALIDA         FAIR      63  11  12 S12G20    30.01R
SUNLIGHT       CLOUDY    32  21  64 SW17G30   30.13R WCI  21
WILKERSON PASS FAIR      41  27  56 S16G24    30.15S
$$

COZ069>075-250100-
...SAN LUIS VALLEY/SANGRE DE CRISTO MOUNTAINS...

CITY           SKY/WX    TMP DP  RH WIND       PRES   REMARKS
ALAMOSA        FAIR      60  21  22 SW18G29   29.98R
DEL NORTE      FAIR      56  20  24 SW13G21   30.03R
LA VETA PASS   FAIR      46  27  46 S15G29    30.23R HAZE
SAGUACHE       FAIR      55  16  21 W20G28    30.01R
$$

COZ035-036-038>040-250100-
...NORTHERN COLORADO FRONT RANGE...

CITY           SKY/WX    TMP DP  RH WIND       PRES   REMARKS
DENVER INTL AP CLOUDY    48  45  89 E13       29.98S
DMNS CITY PARK   N/A     47  47  98 NE8G16    30.00R
AURORA         CLOUDY    47  47 100 E12       29.99R
FRONT RANGE AP LGT RAIN  50  48  93 NE14      30.00R
ERIE MUNI ARPT CLOUDY    47  46  95 NE6       30.05S FOG
BOULDER MUN AP LGT RAIN  46  46 100 NE3       30.00R
CENTENNIAL     CLOUDY    47  47 100 NE6       29.98S FOG
BROOMFIELD     DRZL/FOG  46  46 100 N6        30.01R VSB 3/4
FORT COLLINS   LGT RAIN  47  46  97 SE3       30.01R FOG
LONGMONT       LGT RAIN  49  47  91 CALM      30.02R
$$

COZ041-046-047-076>085-087-088-250100-
...PIKES PEAK/PALMER DIVIDE AND SOUTHERN FOOTHILLS...

CITY           SKY/WX    TMP DP  RH WIND       PRES   REMARKS
COLO. SPRINGS  LGT RAIN  53  48  83 SE7       29.99R
A. F. ACADEMY  CLOUDY    53  45  72 S13       29.98R
SCHRIEVER AFB  CLOUDY    50  47  90 MISG      30.00R
CHEYENNE MTN   MOCLDY    48  46  90 S8        29.95R
ELLICOTT       CLOUDY   N/A N/A N/A E13       29.98S
FALCON         CLOUDY    50  47  90 SE8       30.02R
FORT CARSON    DRIZZLE   53  50  92 SE13      29.97R
LIMON            N/A    N/A N/A N/A MISG        N/A
MONUMENT HILL  FAIR      46  43  87 SE10      30.02R
CANON CITY     CLOUDY    57  50  77 E13       29.95R
WALSENBURG     CLOUDY    54  52  94 NE7       29.97S
TRINIDAD       CLOUDY    55  52  89 N10       29.95R
$$

COZ042>045-048>051-090-091-250100-
...NORTHEAST COLORADO...

CITY           SKY/WX    TMP DP  RH WIND       PRES   REMARKS
GREELEY ARPT   LGT RAIN  48  47  96 E10       30.00R
AKRON          CLOUDY    48  46  93 E10       29.99S FOG
BURLINGTON     CLOUDY    52  51  97 NE14      29.96S FOG
WRAY           CLOUDY    52  52 100 NE10      29.99R
YUMA           CLOUDY    46  46 100 NE9       29.98F FOG
STERLING       CLOUDY    52  46  82 NE8       29.98S
HOLYOKE        CLOUDY    54  50  87 NE12      30.00S
FORT MORGAN    CLOUDY    50  45  83 E8        30.00S
$$

COZ086-089-092>099-250100-
...SOUTHEAST COLORADO...

CITY           SKY/WX    TMP DP  RH WIND       PRES   REMARKS
PUEBLO         CLOUDY    56  51  84 E10       29.95R
LA JUNTA       LGT RAIN  56  55  97 N12       29.91S FOG
LAMAR          CLOUDY    58  55  90 NE9       29.88S
SPRINGFIELD      N/A     59  59 100 NE13      29.87S
$$




USA.gov is the U.S. government's official web portal to all federal, state and local government web resources and services.